{"data":{"norad_id":65747,"intl_designator":"2025-216P","name":"STARLINK-35214","alt_names":[],"object_type":"PAYLOAD","status":"ACTIVE","operator":null,"country":"US","launch_date":"2025-09-25","launch_site_code":"AFETR","launch_vehicle":null,"mission":null,"orbit_class":"UNKNOWN","rcs_meters":null,"size_class":null,"mass_kg":null,"dimensions":null,"purposes":["comms"],"wikipedia_slug":null,"has_3d_model":false,"image_url":null,"decayed_at":null,"tle_current":{"epoch":"2026-09-20T22:50:16.420416Z","epoch_age_seconds":69534,"freshness":"FRESH","line1":"1 65747U 25216P   26263.95157894  .00026290  00000+0  78631-3 0  9998","line2":"2 65747  53.1567 143.4652 0000850  95.0022 265.1078 15.34407752 56473","mean_motion":15.34407752,"eccentricity":8.5e-5,"inclination_deg":53.1567,"raan_deg":143.4652,"arg_perigee_deg":95.0022,"mean_anomaly_deg":265.1078,"bstar":0.00078631,"rev_number":5647,"period_min":93.847283951939,"perigee_km":462.09873026447,"apogee_km":463.26166918842,"semimajor_km":6840.8171997264,"source":"CELESTRAK","updated_at":"2026-09-21T09:00:35.709500Z"}}}